Location: Marysville Observatory
(48.1092°N, 122.1645°W)
Time: 21:20:26
(UTC-08:00)

ISS - Visible Passes

Search period start: 23 January 2018 00:00
Search period end: 02 February 2018 00:00
Orbit: 402 x 407 km, 51.6° (Epoch: 24 January)

Date Brightness Start Highest point End Pass type
(mag) Time Alt. Az. Time Alt. Az. Time Alt. Az.
24 Jan -1.0 19:19:17 10° SSW 19:19:32 11° SSW 19:19:32 11° SSW visible
25 Jan -1.7 18:27:57 10° S 18:29:43 15° SE 18:29:43 15° SE visible
26 Jan -2.4 19:10:30 10° SW 19:12:31 31° SSW 19:12:31 31° SSW visible
27 Jan -2.7 18:18:34 10° SSW 18:21:26 29° SE 18:22:32 23° ESE visible
27 Jan -0.7 19:54:29 10° WSW 19:55:12 15° W 19:55:12 15° W visible
28 Jan -3.8 19:02:06 10° WSW 19:05:08 76° SW 19:05:08 76° SW visible
29 Jan -3.6 18:09:50 10° SW 18:13:02 56° SSE 18:15:01 21° ENE visible
29 Jan -1.2 19:46:24 10° W 19:47:40 21° WNW 19:47:40 21° WNW visible
30 Jan -3.7 18:53:53 10° W 18:57:08 60° NNW 18:57:29 55° NNE visible
31 Jan -3.8 18:01:26 10° WSW 18:04:42 83° NNW 18:07:16 16° ENE visible
31 Jan -1.6 19:38:16 10° WNW 19:39:55 25° WNW 19:39:55 25° WNW visible
01 Feb -3.2 18:45:44 10° W 18:48:55 46° N 18:49:39 37° NNE visible
